This is the latest recevied weather packets stored in our database for station/object KE5AKC. If no packets are shown the sender has not sent any weather packets the latest 1 day(s).
| Time | Temp. | Humidity | Pressure | Rain* | Wind** | Luminosity | Snow |
|---|---|---|---|---|---|---|---|
| 1778076796 | 26.11° C | 89% | 1009.7 hPa | 0 mm | - | 254 W/m² | - |
| 1778075887 | 25.56° C | 91% | 1009.7 hPa | 0 mm | - | 151 W/m² | - |
| 1778075583 | 25° C | 91% | 1010 hPa | 0 mm | - | 102 W/m² | - |
| 1778074976 | 25° C | 93% | 1009.7 hPa | 0 mm | - | 131 W/m² | - |
| 1778074067 | 24.44° C | 93% | 1010 hPa | 0 mm | - | 83 W/m² | - |
| 1778073159 | 24.44° C | 94% | 1010 hPa | 0 mm | - | 45 W/m² | - |
| 1778072855 | 24.44° C | 94% | 1010 hPa | 0 mm | - | 43 W/m² | - |
| 1778072552 | 24.44° C | 94% | 1010 hPa | 0 mm | - | 43 W/m² | - |
| 1778072250 | 24.44° C | 94% | 1010 hPa | 0 mm | - | 38 W/m² | - |
| 1778071343 | 23.89° C | 95% | 1010 hPa | 0 mm | - | 25 W/m² | - |
| 1778071040 | 23.89° C | 95% | 1010 hPa | 0 mm | - | 22 W/m² | - |
| 1778070740 | 23.89° C | 95% | 1010 hPa | 0 mm | - | 20 W/m² | - |
| 1778070133 | 23.89° C | 95% | 1009.7 hPa | 0 mm | - | 15 W/m² | - |
| 1778069527 | 23.89° C | 95% | 1009.7 hPa | 0 mm | - | 18 W/m² | - |
| 1778068922 | 23.89° C | 95% | 1009.7 hPa | 0 mm | - | 15 W/m² | - |
| 1778068015 | 23.33° C | 95% | 1009.3 hPa | 0 mm | - | 6 W/m² | - |
| 1778066804 | 23.33° C | 94% | 1009 hPa | 0 mm | - | 1 W/m² | - |
| 1778066502 | 23.33° C | 94% | 1008.6 hPa | 0 mm | - | 0 W/m² | - |
| 1778064988 | 23.33° C | 93% | 1008.6 hPa | 0 mm | - | 0 W/m² | - |
| 1778064685 | 23.33° C | 93% | 1008.6 hPa | 0 mm | - | 0 W/m² | - |
| 1778064383 | 23.33° C | 93% | 1008.6 hPa | 0 mm | - | 0 W/m² | - |
| 1778063778 | 23.89° C | 93% | 1008.3 hPa | 0 mm | - | 0 W/m² | - |
| 1778061358 | 23.89° C | 92% | 1008.3 hPa | 0 mm | - | 0 W/m² | - |
| 1778061054 | 23.89° C | 91% | 1008.3 hPa | 0 mm | - | 0 W/m² | - |
| 1778060752 | 23.89° C | 91% | 1008.3 hPa | 0 mm | - | 0 W/m² | - |
* Rain latest hour (hover to see other rain measurements)
** Current wind speed in m/s (hover to see current wind gust speed)